Probability
0 0 0 0 0 0 0 0 0 0 0 0 0 0 0 0 1 3 6 8 9 11 12 12 10 9 9 9 8 8 8 7 7 6 4 3 1 1 2 2 3 4 5 5
0 0 0 0 0 0 0 0 0 0 0 1 1 1 1 2 3 5 7 8 10 11 12 11 10 10 11 11 10 9 9 9 10 9 7 5 3 2 1 2 3 5 6 7
0 0 0 0 0 0 0 0 0 0 1 2 2 2 3 4 5 7 7 8 10 11 11 10 11 13 14 14 14 13 11 11 12 13 12 10 8 5 3 3 3 5 7 9
0 0 0 0 0 0 0 0 1 1 1 2 2 3 3 4 5 6 6 7 9 11 10 10 11 14 16 17 17 16 14 12 12 14 15 15 13 9 6 5 6 7 7 7
0 0 0 0 0 0 0 1 2 3 3 2 2 3 3 3 4 5 7 9 10 12 11 10 11 14 16 17 17 15 12 10 11 13 15 15 14 12 10 10 10 9 7 6
0 0 0 0 1 1 1 1 2 4 4 4 4 4 4 5 6 7 8 10 11 12 12 12 12 13 15 16 15 12 9 8 9 12 14 14 14 13 14 14 12 8 6 5
0 0 0 1 2 2 1 1 3 4 6 6 5 4 5 7 8 9 8 9 11 12 13 13 12 13 14 15 14 11 9 7 8 10 12 13 13 14 15 16 14 9 6 6
0 0 0 1 2 2 2 2 4 5 6 5 4 5 6 7 8 8 8 7 9 12 13 12 11 10 12 13 13 12 10 7 7 9 11 13 14 16 17 18 17 13 10 8
1 1 1 0 1 3 4 4 5 6 5 4 4 5 5 6 6 6 6 6 7 10 12 11 9 9 9 9 11 12 11 8 7 10 12 15 17 18 18 18 18 17 15 12
3 3 3 2 3 5 7 6 6 6 5 5 5 5 4 4 4 4 4 4 6 9 11 10 9 8 6 6 9 11 10 9 9 12 15 18 20 19 18 17 17 18 17 15
4 4 4 4 5 7 9 9 7 7 6 6 5 5 4 3 3 3 3 4 6 8 9 8 8 7 4 4 6 8 9 9 10 12 15 18 19 18 16 14 13 13 14 13
3 3 4 4 6 8 10 9 8 8 8 6 5 4 3 3 4 4 3 4 5 7 8 8 8 7 4 3 4 6 8 10 11 12 14 16 17 15 13 11 7 6 7 8
1 2 3 3 5 8 9 8 7 7 7 7 6 4 3 4 6 6 5 4 5 6 7 8 9 8 6 5 4 6 9 12 13 14 14 15 15 14 12 9 6 3 3 2
0 1 1 2 4 6 8 7 6 5 5 7 6 4 3 5 7 7 6 6 6 6 6 7 8 8 9 9 8 8 9 12 14 14 13 13 13 13 13 12 9 7 4 1
0 0 0 1 2 4 6 6 5 5 5 5 5 4 5 6 7 7 6 6 5 5 5 6 6 8 9 10 9 8 7 9 10 11 12 14 14 14 14 13 12 11 7 3
0 0 0 0 1 3 4 4 5 6 6 4 3 5 6 7 7 6 5 4 5 6 7 7 7 8 9 8 7 6 6 5 5 7 10 13 14 14 13 13 13 12 9 7
0 0 0 0 1 2 3 3 5 8 7 3 3 4 6 6 5 4 2 2 4 7 7 8 8 7 6 4 3 4 4 3 3 5 7 10 12 12 12 13 13 13 11 10
0 1 1 1 1 1 2 3 6 8 7 3 2 4 4 4 3 2 1 0 2 3 5 6 5 4 3 2 1 1 1 2 3 4 6 7 9 10 11 12 12 13 12 10
1 1 2 2 2 2 3 4 6 7 6 3 3 3 2 2 2 2 1 0 0 1 1 2 2 1 1 0 0 0 0 1 3 6 8 8 8 9 10 10 11 12 11 10
0 1 2 3 3 3 4 5 6 5 4 3 3 3 2 1 1 1 0 0 0 0 0 0 0 0 0 0 0 0 0 1 3 6 8 9 9 9 10 10 10 11 11 9
0 0 1 1 2 3 4 5 5 4 3 3 3 2 1 0 0 0 0 0 0 0 0 0 0 0 0 0 0 0 0 1 3 6 7 8 9 9 10 10 10 10 9 8
0 0 0 0 0 1 3 3 3 3 3 2 1 1 0 0 0 0 0 0 0 0 0 0 0 0 0 0 0 0 0 0 2 5 6 7 8 9 9 9 9 8 7 7
0 0 0 0 0 0 1 1 1 2 1 1 0 0 0 0 0 0 0 0 0 0 0 0 0 0 0 0 0 0 0 1 2 4 5 6 7 8 8 8 7 7 6 6
0 0 0 0 0 0 0 0 0 0 0 0 0 0 0 0 0 0 0 0 0 0 0 0 0 0 0 0 0 0 0 1 2 3 4 4 5 6 6 7 6 6 5 5
0 0 0 0 0 0 0 0 0 0 0 0 0 0 0 0 0 0 0 0 0 0 0 0 0 0 0 0 0 0 0 1 1 2 3 3 4 4 5 6 6 5 5 5
0 0 0 0 0 0 0 0 0 0 0 0 0 0 0 0 0 0 0 0 0 0 0 0 0 0 0 0 0 1 1 1 1 2 3 3 3 3 4 3 3 3 3 3
0 0 0 0 0 0 0 0 0 0 0 0 0 0 0 0 0 0 0 0 0 0 0 0 0 0 0 0 1 2 2 2 2 2 3 3 3 3 3 2 1 1 1 1
Wind_Speed
3 3 3 3 4 5 5 8 8 8 8 9 7 7 5 4 4 4 5 5 5 5 4 5 5 5 5 5 5 5 5 4 4 3 2 2 2 3 3 3 3 3 2 2
1 1 2 2 2 4 4 4 4 3 6 5 3 3 3 4 5 5 5 5 5 5 5 5 5 5 5 5 5 5 5 4 3 3 3 2 2 2 2 2 2 2 2 3
2 3 2 3 3 4 4 4 6 7 7 2 2 5 5 5 5 5 5 5 6 6 6 6 5 5 5 4 4 5 4 4 3 3 3 3 2 2 2 3 3 3 3 3
2 2 4 8 3 3 4 2 3 4 3 4 5 3 2 2 3 3 4 4 5 5 4 4 3 3 3 4 4 4 3 3 3 3 3 2 2 3 3 2 3 3 4 4
4 3 4 5 2 3 4 2 2 3 3 3 4 5 2 0 2 3 3 3 3 4 4 4 4 4 4 4 4 3 3 3 3 4 3 3 3 3 3 2 2 2 2 3
5 4 6 8 3 1 3 3 3 4 6 5 6 3 3 2 2 1 2 3 3 4 4 4 3 4 5 4 4 4 4 3 3 4 4 4 4 3 2 2 3 3 3 3
4 4 8 6 3 2 4 7 2 5 6 6 5 5 4 3 2 2 3 3 3 4 4 3 3 5 5 4 5 5 3 2 2 3 4 4 3 2 2 2 2 2 3 3
5 4 8 2 1 5 6 2 2 4 4 5 4 3 3 4 4 3 3 3 3 3 3 2 3 5 5 5 4 3 3 2 2 2 3 2 2 2 2 2 3 3 3 3
8 7 5 2 4 3 2 2 2 4 4 6 4 3 3 3 3 3 3 2 2 3 2 2 2 4 5 5 3 4 3 3 3 3 3 3 3 3 2 3 3 3 3 4
2 4 4 3 2 1 0 2 2 3 5 6 5 4 3 3 2 2 2 2 2 3 2 1 1 2 4 3 3 3 4 3 3 3 3 2 2 3 3 3 4 4 4 4
2 4 3 3 2 1 1 2 3 3 3 4 5 4 3 2 2 3 2 2 2 2 2 2 1 2 2 2 2 2 2 3 2 2 3 2 3 3 4 5 5 6 5 5
7 6 4 5 3 1 1 1 2 4 3 2 3 4 3 3 2 2 2 1 1 1 1 2 1 2 2 2 3 3 2 2 2 2 2 3 3 3 4 5 6 7 8 7
6 4 4 4 2 2 2 2 2 3 4 3 2 3 3 2 2 2 2 2 2 2 2 2 2 2 3 2 3 4 3 3 2 3 3 3 3 3 4 4 4 5 6 7
4 2 2 3 3 2 2 3 2 2 2 2 2 2 2 2 2 2 2 3 2 2 1 2 2 3 3 2 3 3 3 3 3 3 3 3 3 4 3 3 4 4 4 5
3 3 4 2 1 1 1 3 3 2 2 2 2 3 4 4 3 3 2 1 1 1 1 2 2 4 3 1 2 3 3 2 2 2 3 3 3 3 3 4 4 3 3 3
2 0 1 1 2 2 2 3 4 4 3 3 3 3 4 3 3 1 1 2 2 2 3 2 3 4 3 2 2 2 2 4 3 2 3 3 3 3 3 4 4 4 4 3
3 2 2 3 4 3 3 4 4 5 4 4 4 3 2 3 2 2 2 2 2 2 3 3 3 3 2 2 2 2 2 2 3 2 2 3 3 3 3 4 4 4 4 4
5 5 5 6 6 4 3 3 4 4 5 5 4 3 4 4 4 4 3 1 0 1 3 3 3 2 2 2 2 1 1 2 2 2 2 2 3 3 3 3 4 4 3 3
3 3 4 4 5 5 4 4 4 4 4 4 4 4 4 4 4 3 2 2 2 3 4 3 3 2 2 2 1 1 1 2 2 2 2 3 3 3 3 3 3 3 3 2
1 2 2 3 3 4 4 4 3 3 3 4 4 4 3 4 4 3 3 2 4 4 3 2 2 2 2 2 2 1 1 2 2 2 2 2 2 3 2 2 2 3 2 2
1 1 2 2 3 3 4 4 4 4 4 4 5 5 5 3 3 3 3 2 4 3 2 2 2 2 2 2 2 1 1 2 2 2 2 2 3 3 2 2 2 2 2 2
2 2 2 2 2 2 2 2 3 4 4 4 4 4 4 3 3 2 2 3 3 2 2 2 2 2 2 2 1 1 2 2 2 2 2 2 2 2 2 2 2 2 2 2
2 2 2 2 3 2 1 2 3 4 4 4 4 4 4 3 3 3 2 3 2 2 2 2 2 3 2 1 1 2 2 2 2 2 2 2 2 2 2 2 2 2 2 2
2 1 2 1 2 3 2 2 2 3 3 3 3 3 3 2 1 2 3 2 3 3 2 2 3 3 2 1 1 2 2 2 2 2 2 1 1 2 2 2 2 2 2 2
2 1 0 1 2 2 2 2 2 2 2 1 1 1 1 2 3 2 1 2 2 2 2 2 3 3 2 1 1 1 1 2 2 1 1 1 2 2 2 2 2 2 2 2
2 1 1 0 1 1 1 2 2 2 2 2 0 0 0 0 1 1 1 1 1 1 1 1 1 1 1 1 2 2 1 1 1 2 2 1 2 1 1 2 2 2 2 2
1 1 1 1 1 0 1 2 2 2 2 2 1 1 0 0 1 0 0 0 0 0 0 0 0 0 0 1 1 1 1 1 1 1 1 1 1 1 1 1 1 1 2 2
Wind_Direction
211 222 194 202 208 185 182 183 186 220 218 236 221 205 203 194 180 164 160 162 168 170 167 167 173 178 179 182 180 175 169 180 193 192 189 196 203 206 199 196 205 205 204 219
311 302 198 228 240 199 205 188 209 218 246 245 207 175 178 180 171 171 174 173 171 164 162 173 178 179 175 180 179 168 172 188 191 179 179 190 205 208 205 213 215 204 211 215
238 300 48 273 235 200 204 200 179 206 232 187 174 188 193 188 176 172 178 176 172 172 176 182 183 179 181 178 161 161 178 184 186 186 188 200 207 200 219 223 218 219 224 220
133 88 212 246 256 186 171 217 220 223 214 185 181 166 146 166 173 168 168 172 175 174 172 167 165 170 166 148 151 167 184 191 189 187 195 203 203 218 231 227 223 229 232 231
126 164 268 289 259 170 162 253 226 196 175 139 121 84 21 242 178 177 173 170 171 166 157 149 154 159 145 147 155 165 190 199 199 191 194 202 217 231 234 229 238 239 238 233
132 155 219 238 254 206 117 277 245 180 173 152 122 124 245 222 161 130 122 127 130 129 127 138 159 150 145 160 169 190 204 209 202 192 195 209 221 225 224 220 236 240 246 240
152 196 250 249 272 108 164 237 217 174 174 163 168 186 189 156 140 125 114 117 122 125 135 161 160 150 163 176 199 205 194 187 199 210 215 218 219 218 224 229 232 238 251 260
147 182 247 276 129 180 217 227 166 167 164 155 158 141 131 137 140 134 116 104 118 128 134 146 157 159 173 199 212 190 170 165 209 233 235 229 215 228 221 218 227 239 249 268
185 209 247 256 233 254 189 180 184 164 155 145 147 155 143 146 147 145 133 128 128 139 136 155 179 174 186 211 199 180 176 183 205 230 229 222 215 227 227 220 226 241 243 254
240 272 282 292 312 347 160 177 164 148 145 144 147 153 144 139 136 140 144 154 153 145 145 184 213 201 205 208 195 181 191 203 205 216 233 227 218 214 219 228 233 241 244 249
255 278 319 326 323 341 45 85 108 110 120 140 136 141 146 150 156 155 155 158 149 153 174 210 216 226 231 202 173 192 218 221 221 223 227 240 240 229 226 231 223 228 238 233
218 220 197 242 259 222 135 141 143 129 109 104 138 149 143 150 163 160 162 142 131 154 185 223 233 250 247 204 178 186 223 233 230 234 234 236 246 274 262 251 253 245 238 233
216 216 211 238 248 228 203 200 177 150 150 154 145 144 146 151 163 158 160 163 180 200 221 239 248 259 251 209 191 193 215 225 231 238 241 239 239 245 274 290 279 264 253 241
222 184 235 241 228 222 201 183 150 136 145 152 159 144 145 154 158 170 196 203 190 182 219 252 268 275 268 210 196 213 223 231 233 239 247 244 242 244 245 255 274 282 273 255
249 209 207 215 194 206 173 148 143 168 166 164 174 169 173 174 181 203 213 184 155 177 248 256 271 282 286 236 217 226 231 236 236 242 250 250 244 243 246 251 257 265 277 276
247 157 133 153 200 208 181 167 176 196 192 185 191 201 193 173 167 171 181 169 168 217 247 254 265 275 280 261 247 247 239 245 248 241 245 249 248 247 250 251 255 255 255 254
187 220 213 208 222 222 203 190 189 194 190 188 203 198 166 144 143 172 220 224 211 235 248 252 266 281 288 277 264 264 262 255 249 248 250 253 252 251 253 251 252 256 254 245
212 217 215 206 207 213 214 201 194 193 200 204 189 173 174 176 190 207 216 207 178 291 279 265 267 284 288 285 271 248 240 245 241 240 252 258 265 261 257 255 257 262 267 253
223 222 228 221 213 203 203 211 210 202 192 176 170 185 197 197 197 201 185 168 205 256 272 270 269 279 287 288 288 232 219 237 251 250 250 258 267 273 269 262 258 256 251 247
238 218 225 226 224 212 206 206 199 200 196 178 169 172 190 205 196 185 178 204 230 233 245 257 259 265 276 283 291 265 249 242 247 256 261 262 268 276 277 273 266 259 249 237
272 254 236 225 232 232 211 196 189 191 186 168 172 185 194 198 186 175 172 222 259 251 249 253 250 258 271 279 275 273 273 267 260 258 260 262 268 270 272 275 270 266 263 256
284 270 242 225 207 235 234 193 176 174 168 167 173 174 169 175 181 185 205 222 238 237 233 244 249 248 259 273 270 277 278 278 272 262 258 258 262 267 273 277 272 269 268 267
291 262 225 208 200 201 198 174 168 165 167 175 177 180 182 187 186 184 227 245 224 222 224 242 249 250 255 252 255 261 268 273 274 270 259 251 251 260 268 274 274 272 271 270
299 282 246 217 145 134 152 184 160 155 158 172 186 187 176 168 205 227 221 225 218 224 233 246 249 254 252 251 256 266 278 278 276 275 270 262 257 260 269 273 272 274 276 271
308 308 335 121 141 181 189 161 123 117 129 138 160 193 196 185 192 218 220 221 218 218 245 252 250 253 254 270 273 272 274 276 276 273 271 267 267 269 272 277 280 285 285 277
328 335 327 249 197 182 155 140 141 155 152 143 138 213 213 194 186 194 206 232 236 234 247 257 252 252 258 271 277 280 282 286 282 275 282 291 286 281 288 295 299 297 293 286
1 4 28 33 18 96 140 140 143 156 162 162 178 223 193 143 123 136 149 155 261 277 282 298 310 320 308 293 286 283 280 277 278 285 302 306 299 290 288 291 302 310 306 301